Tracking 27112 objects as of 26-Mar-2023
HD Live streaming from Space Station
objects crossing your sky now

OPS 9323 (IDSCS 10)

Track OPS 9323 (IDSCS 10) now!
OPS 9323 (IDSCS 10) is classified as:


NORAD ID: 2650
Int'l Code: 1967-003C
Perigee: 33,558.2 km
Apogee: 33,846.8 km
Inclination: 6.1 °
Period: 1,330.6 minutes
Semi major axis: 40073 km
RCS: 0.003 m2 (small)
Launch date: January 18, 1967
Source: United States (US)
Launch site: AIR FORCE EASTERN TEST RANGE (AFETR)
Your satellite tracking list
Your tracking list is empty




NASA's NSSDC Master Catalog

Two Line Element Set (TLE):
1 02650U 67003C   23084.44424470 -.00000124  00000-0  00000-0 0  9993
2 02650   6.0783  53.9801 0036009  73.2573 272.2388  1.08222495127678
Source of the keplerian elements: AFSPC